Simultaneous Nadir Overpasses (SNOs) Predictions

Prediction of SNOs between NOAA-19 and TERRA Satellite Orbit:

Table of predicted SNOs for the next 14.0 days since TLE Epoch: 10/16/2021
Index Date (NOAA-19) Time (NOAA-19) Lat,Lon (NOAA-19) SZA (NOAA-19 ) Date (TERRA) Time (TERRA) Lat,Lon (TERRA) SZA (TERRA ) Distance(km) Time Diff (sec)
1 10/17/2021 01:14:46 80.47,-163.92 91.73 10/17/2021 01:15:13 80.48,-164.07 91.73 3.01 27
2 10/17/2021 02:05:41 -80.47, 3.36 88.26 10/17/2021 02:04:40 -80.48, 3.53 88.27 3.28 61
3 10/19/2021 06:47:48 -80.49, -67.46 87.47 10/19/2021 06:48:54 -80.49, -67.44 87.45 0.47 66
4 10/19/2021 07:38:52 80.47, 100.07 92.56 10/19/2021 07:38:20 80.49, 100.21 92.57 2.98 32
5 10/21/2021 13:11:54 -80.49,-163.37 86.65 10/21/2021 13:12:02 -80.46,-163.48 86.68 3.42 8
6 10/23/2021 18:45:04 80.49, -66.61 94.15 10/23/2021 18:45:41 80.50, -66.57 94.18 1.10 37
7 10/23/2021 19:36:00 -80.49, 100.72 85.84 10/23/2021 19:35:09 -80.47, 100.77 85.87 2.46 51
8 10/26/2021 00:18:13 -80.59, 27.78 85.22 10/26/2021 00:19:24 -80.44, 29.41 85.16 34.64 71
9 10/26/2021 01:09:09 80.48,-162.36 94.96 10/26/2021 01:08:48 80.49,-162.36 94.96 1.76 21
10 10/28/2021 06:42:12 -80.49, -65.73 84.30 10/28/2021 06:42:29 -80.50, -65.76 84.29 1.12 17



Historial Predications of SNOs between NOAA-19 and TERRA
